Location: Drummondville
(45.8830°N, 72.4830°W)
Time: 20:05:53
(UTC-05:00)

N. Korean satellite - Pass Details

Date: 17 November 2017
Orbit: 460 x 514 km, 97.2° (Epoch: 20 November)

Event Time Altitude Azimuth Distance (km) Brightness Sun altitude
Rises 05:25:13 0° 35° (NE) 2,607 10.6 -15.2°
Reaches altitude 10° 05:28:53 10° 73° (ENE) 1,727 10.3 -14.6°
Maximum altitude 05:29:53 11° 89° (E) 1,673 10.6 -14.4°
Drops below altitude 10° 05:30:53 10° 105° (ESE) 1,728 10.8 -14.3°
Sets 05:34:33 0° 143° (SE) 2,614 11.1 -13.6°
